Weather History for Clemson, SC

Change the Weather History Date:

Sunday, February 24, 2013

  Actual Average Record
Temperature  
Mean Temperature 52 °F -  
Max Temperature 68 °F 58 °F 81 °F (1930)
Min Temperature 37 °F 34 °F 15 °F (1947)
Degree Days  
Heating Degree Days 12    
Growing Degree Days 2 (Base 50)    
Moisture  
Dew Point 36 °F    
Average Humidity 70    
Maximum Humidity 93    
Minimum Humidity 20    
Precipitation  
Precipitation 0.07 in - - ()
Sea Level Pressure  
Sea Level Pressure 29.94 in    
Wind  
Wind Speed 2 mph (West)    
Max Wind Speed 9 mph    
Max Gust Speed -    
Visibility 5 miles    
Events Fog    
Averages and records for this station are not official NWS values.
T = Trace of Precipitation, MM = Missing Value Source: NWS Daily Summary

Daily Weather History Graph

Daily Weather History Graph

Search for Another Location

Airport:

Trip Planner

Search our weather history database for the weather conditions in past years. The results will help you decide how hot, cold, wet, or windy it might be!

Date:

Astronomy

Feb. 24, 2013 Rise Set
Actual Time 7:06 AM EST 6:23 PM EST
Civil Twilight 6:41 AM EST 6:48 PM EST
Nautical Twilight 6:11 AM EST 7:18 PM EST
Astronomical Twilight 5:42 AM EST 7:47 PM EST
Moon 5:33 PM EST (2/24) 6:02 AM EST (2/24)
Length of Visible Light 12h 07m
Length of Day
11h 16m
Waxing Gibbous, 99% of the Moon is Illuminated
Feb 24
Waxing Gibbous
Feb 25
Full
Mar 4
Last Quarter
Mar 11
New
Mar 19
First Quarter

Hourly Weather History & Observations

Time (EST) Temp. Windchill Dew Point Humidity Pressure Visibility Wind Dir Wind Speed Gust Speed Precip Events Conditions
12:54 AM 46.9 °F - 44.1 °F 90% 29.88 in 0.5 mi Calm Calm - 0.01 in Fog Fog
1:54 AM 46.9 °F - 44.1 °F 90% 29.88 in 0.8 mi West 6.9 mph - 0.01 in   Mist
2:54 AM 46.0 °F 44.8 °F 43.0 °F 89% 29.88 in 0.5 mi WSW 3.5 mph - 0.01 in Fog Fog
3:28 AM 46.4 °F 44.3 °F 42.8 °F 87% 29.88 in 0.2 mi Variable 4.6 mph - N/A Fog Fog
3:41 AM 46.4 °F - 42.8 °F 87% 29.88 in 0.2 mi Calm Calm - N/A Fog Fog
3:54 AM 45.0 °F - 42.1 °F 90% 29.88 in 0.2 mi Calm Calm - N/A Fog Fog
4:08 AM 44.6 °F - 42.8 °F 93% 29.88 in 0.2 mi Calm Calm - 0.01 in Fog Fog
4:28 AM 44.6 °F - 42.8 °F 93% 29.88 in 0.2 mi Calm Calm - 0.01 in Fog Fog
4:54 AM 45.0 °F - 42.1 °F 90% 29.90 in 0.2 mi Calm Calm - 0.01 in Fog Fog
5:54 AM 43.0 °F - 39.0 °F 86% 29.92 in 0.2 mi Calm Calm - 0.01 in Fog Fog
6:30 AM 39.2 °F 37.0 °F 35.6 °F 87% 29.93 in 1.0 mi West 3.5 mph - N/A   Mist
6:34 AM 41.0 °F 39.0 °F 37.4 °F 87% 29.93 in 2.5 mi West 3.5 mph - N/A   Scattered Clouds
6:41 AM 41.0 °F 38.0 °F 37.4 °F 87% 29.93 in 7.0 mi WNW 4.6 mph - N/A   Partly Cloudy
6:47 AM 39.2 °F 37.0 °F 35.6 °F 87% 29.93 in 1.5 mi NW 3.5 mph - 0.01 in   Partly Cloudy
6:49 AM 37.4 °F 34.9 °F 35.6 °F 93% 29.93 in 0.8 mi NW 3.5 mph - 0.01 in   Mist
7:04 AM 39.2 °F - 37.4 °F 93% 29.94 in 0.5 mi Calm Calm - N/A Fog Fog
7:12 AM 39.2 °F - 35.6 °F 87% 29.94 in 0.2 mi Calm Calm - N/A Fog Fog
7:48 AM 39.2 °F - 37.4 °F 93% 29.95 in 1.0 mi Calm Calm - N/A   Mist
7:50 AM 39.2 °F - 37.4 °F 93% 29.95 in 3.0 mi Calm Calm - N/A   Scattered Clouds
7:54 AM 39.9 °F - 37.0 °F 89% 29.96 in 8.0 mi Calm Calm - N/A   Scattered Clouds
8:09 AM 42.8 °F - 39.2 °F 87% 29.96 in 1.0 mi Calm Calm - N/A   Mist
8:13 AM 42.8 °F - 39.2 °F 87% 29.96 in 0.2 mi Calm Calm - N/A Fog Fog
8:30 AM 42.8 °F - 39.2 °F 87% 29.96 in 1.0 mi Calm Calm - 0.01 in   Mist
8:32 AM 42.8 °F - 39.2 °F 87% 29.97 in 4.0 mi Calm Calm - 0.01 in   Scattered Clouds
8:54 AM 44.1 °F - 41.0 °F 89% 29.98 in 2.5 mi Calm Calm - 0.01 in   Partly Cloudy
9:04 AM 44.6 °F - 42.8 °F 93% 29.98 in 9.0 mi Calm Calm - N/A   Partly Cloudy
9:54 AM 51.1 °F - 42.1 °F 71% 29.99 in 10.0 mi Calm Calm - N/A   Clear
10:54 AM 55.9 °F - 43.0 °F 62% 29.98 in 10.0 mi Calm Calm - 0.01 in   Clear
11:54 AM 60.1 °F - 39.9 °F 47% 29.99 in 10.0 mi SE 5.8 mph - N/A   Clear
12:54 PM 63.0 °F - 34.0 °F 34% 29.96 in 10.0 mi SW 5.8 mph - N/A   Clear
1:54 PM 64.9 °F - 30.0 °F 27% 29.93 in 10.0 mi Variable 3.5 mph - N/A   Clear
2:54 PM 68.0 °F - 28.9 °F 23% 29.92 in 10.0 mi SW 9.2 mph - N/A   Clear
3:54 PM 68.0 °F - 28.0 °F 22% 29.91 in 10.0 mi SSW 6.9 mph - N/A   Clear
4:54 PM 68.0 °F - 25.0 °F 20% 29.91 in 10.0 mi Variable 3.5 mph - N/A   Clear
5:54 PM 66.0 °F - 25.0 °F 21% 29.93 in 10.0 mi SW 4.6 mph - N/A   Clear
6:54 PM 62.1 °F - 25.0 °F 24% 29.95 in 10.0 mi WSW 5.8 mph - N/A   Clear
7:54 PM 57.0 °F - 25.0 °F 29% 29.97 in 10.0 mi West 4.6 mph - N/A   Clear
8:54 PM 55.0 °F - 24.1 °F 30% 29.98 in 10.0 mi Calm Calm - N/A   Clear
9:54 PM 53.1 °F - 26.1 °F 35% 29.99 in 10.0 mi Calm Calm - N/A   Clear
10:54 PM 50.0 °F - 28.9 °F 44% 29.99 in 10.0 mi North 5.8 mph - N/A   Clear
11:54 PM 48.0 °F - 30.9 °F 52% 29.99 in 10.0 mi Calm Calm - N/A   Clear